| time (UTC) | temp C | wind direction | speed KPH | gust KPH | rain 1hr cm | rain 24hr cm | rain mn cm | humidity % | barometer mb |
| 20260903011244 | 28 | 178 | 3.2 | 4.8 | 0.00 | 0.00 | 0.00 | 80 | 1018.0 |
| 20260903010716 | 28 | 164 | 3.2 | 4.8 | 0.00 | 0.00 | 0.00 | 79 | 1018.0 |
| 20260903010231 | 28 | 193 | 1.6 | 3.2 | 0.00 | 0.00 | 0.00 | 78 | 1018.0 |
| 20260903005718 | 28 | 193 | 3.2 | 3.2 | 0.00 | 0.00 | 0.00 | 78 | 1017.9 |
| 20260903005231 | 28 | 191 | 3.2 | 3.2 | 0.00 | 0.00 | 0.00 | 78 | 1017.9 |
| 20260903004725 | 29 | 191 | 1.6 | 3.2 | 0.00 | 0.00 | 0.00 | 77 | 1017.8 |
| 20260903004218 | 29 | 191 | 3.2 | 3.2 | 0.00 | 0.00 | 0.00 | 77 | 1017.8 |
| 20260903003733 | 29 | 199 | 1.6 | 3.2 | 0.00 | 0.00 | 0.00 | 76 | 1017.8 |
| 20260903003231 | 29 | 199 | 1.6 | 3.2 | 0.00 | 0.00 | 0.00 | 75 | 1017.8 |
| 20260903002724 | 29 | 198 | 1.6 | 3.2 | 0.00 | 0.00 | 0.00 | 75 | 1017.9 |
| 20260903002217 | 30 | 198 | 1.6 | 3.2 | 0.00 | 0.00 | 0.00 | 76 | 1017.9 |
| 20260903001731 | 30 | 199 | 1.6 | 3.2 | 0.00 | 0.00 | 0.00 | 75 | 1017.9 |
| 20260903001224 | 30 | 199 | 0.0 | 1.6 | 0.00 | 0.00 | 0.00 | 74 | 1017.9 |
| 20260903000718 | 30 | 199 | 0.0 | 1.6 | 0.00 | 0.00 | 0.00 | 73 | 1017.9 |
| 20260903000233 | 30 | 212 | 0.0 | 1.6 | 0.00 | 0.00 | 0.00 | 73 | 1017.9 |
| 20260902235719 | 31 | 212 | 1.6 | 1.6 | 0.00 | 0.00 | 0.00 | 72 | 1017.9 |
| 20260902235217 | 31 | 214 | 1.6 | 1.6 | 0.00 | 0.00 | 0.00 | 72 | 1017.9 |
| 20260902234731 | 31 | 214 | 1.6 | 1.6 | 0.00 | 0.00 | 0.00 | 71 | 1017.9 |
| 20260902234224 | 31 | 205 | 1.6 | 1.6 | 0.00 | 0.00 | 0.00 | 70 | 1017.9 |
| 20260902233718 | 31 | 224 | 0.0 | 3.2 | 0.00 | 0.00 | 0.00 | 70 | 1018.0 |
| 20260902233251 | 32 | 234 | 1.6 | 3.2 | 0.00 | 0.00 | 0.00 | 70 | 1018.0 |
| 20260902232723 | 32 | 220 | 1.6 | 3.2 | 0.00 | 0.00 | 0.00 | 69 | 1018.0 |
| 20260902232216 | 32 | 209 | 0.0 | 1.6 | 0.00 | 0.00 | 0.00 | 68 | 1018.0 |
| 20260902231731 | 33 | 227 | 0.0 | 1.6 | 0.00 | 0.00 | 0.00 | 67 | 1018.0 |
| 20260902231228 | 33 | 227 | 1.6 | 1.6 | 0.00 | 0.00 | 0.00 | 65 | 1018.0 |
| 20260902230722 | 33 | 234 | 1.6 | 3.2 | 0.00 | 0.00 | 0.00 | 65 | 1018.1 |
| 20260902230215 | 33 | 219 | 1.6 | 3.2 | 0.00 | 0.00 | 0.00 | 63 | 1018.1 |
| 20260902225722 | 33 | 235 | 1.6 | 3.2 | 0.00 | 0.00 | 0.00 | 63 | 1018.1 |
| 20260902225216 | 33 | 233 | 1.6 | 6.4 | 0.00 | 0.00 | 0.00 | 62 | 1018.1 |
| 20260902224749 | 33 | 236 | 3.2 | 6.4 | 0.00 | 0.00 | 0.00 | 62 | 1018.1 |
| 20260902223717 | 34 | 207 | 1.6 | 4.8 | 0.00 | 0.00 | 0.00 | 63 | 1018.1 |
| 20260902223215 | 34 | 237 | 3.2 | 4.8 | 0.00 | 0.00 | 0.00 | 61 | 1018.1 |
| 20260902222729 | 34 | 226 | 0.0 | 4.8 | 0.00 | 0.00 | 0.00 | 63 | 1018.1 |
| 20260902222243 | 34 | 229 | 0.0 | 4.8 | 0.00 | 0.00 | 0.00 | 62 | 1018.1 |
| 20260902221736 | 34 | 233 | 1.6 | 6.4 | 0.00 | 0.00 | 0.00 | 61 | 1018.1 |
| 20260902221229 | 34 | 221 | 3.2 | 8.0 | 0.00 | 0.00 | 0.00 | 61 | 1018.1 |
| 20260902220723 | 34 | 214 | 4.8 | 9.7 | 0.00 | 0.00 | 0.00 | 60 | 1018.2 |
| 20260902220237 | 34 | 250 | 3.2 | 9.7 | 0.00 | 0.00 | 0.00 | 60 | 1018.2 |
| 20260902215743 | 34 | 271 | 3.2 | 6.4 | 0.00 | 0.00 | 0.00 | 61 | 1018.2 |
| 20260902215216 | 34 | 225 | 3.2 | 11.3 | 0.00 | 0.00 | 0.00 | 62 | 1018.3 |
| 20260902214730 | 34 | 233 | 3.2 | 11.3 | 0.00 | 0.00 | 0.00 | 61 | 1018.2 |
| 20260902214242 | 34 | 198 | 3.2 | 9.7 | 0.00 | 0.00 | 0.00 | 60 | 1018.2 |
| 20260902213717 | 34 | 197 | 6.4 | 9.7 | 0.00 | 0.00 | 0.00 | 59 | 1018.3 |
| 20260902213231 | 35 | 228 | 1.6 | 6.4 | 0.00 | 0.00 | 0.00 | 59 | 1018.3 |
| 20260902212723 | 34 | 232 | 3.2 | 12.9 | 0.00 | 0.00 | 0.00 | 59 | 1018.3 |
| 20260902212216 | 34 | 235 | 4.8 | 12.9 | 0.00 | 0.00 | 0.00 | 59 | 1018.3 |
| 20260902211728 | 35 | 280 | 4.8 | 6.4 | 0.00 | 0.00 | 0.00 | 58 | 1018.3 |
| 20260902211220 | 34 | 243 | 1.6 | 9.7 | 0.00 | 0.00 | 0.00 | 59 | 1018.4 |
| 20260902210753 | 34 | 243 | 4.8 | 9.7 | 0.00 | 0.00 | 0.00 | 59 | 1018.4 |
| 20260902210245 | 34 | 201 | 3.2 | 9.7 | 0.00 | 0.00 | 0.00 | 59 | 1018.4 |
| 20260902205750 | 34 | 276 | 4.8 | 11.3 | 0.00 | 0.00 | 0.00 | 59 | 1018.5 |
| 20260902205222 | 35 | 248 | 3.2 | 11.3 | 0.00 | 0.00 | 0.00 | 57 | 1018.5 |
| 20260902204735 | 35 | 276 | 3.2 | 11.3 | 0.00 | 0.00 | 0.00 | 55 | 1018.5 |
| 20260902204247 | 35 | 245 | 4.8 | 11.3 | 0.00 | 0.00 | 0.00 | 57 | 1018.5 |
| 20260902203744 | 34 | 278 | 1.6 | 11.3 | 0.00 | 0.00 | 0.00 | 59 | 1018.6 |
| 20260902203216 | 34 | 205 | 4.8 | 11.3 | 0.00 | 0.00 | 0.00 | 60 | 1018.5 |
| 20260902202730 | 34 | 222 | 3.2 | 9.7 | 0.00 | 0.00 | 0.00 | 59 | 1018.6 |
| 20260902202223 | 34 | 262 | 4.8 | 9.7 | 0.00 | 0.00 | 0.00 | 58 | 1018.6 |
| 20260902201716 | 34 | 223 | 3.2 | 9.7 | 0.00 | 0.00 | 0.00 | 58 | 1018.6 |
| 20260902201230 | 33 | 232 | 4.8 | 8.0 | 0.00 | 0.00 | 0.00 | 61 | 1018.7 |
| 20260902200723 | 33 | 240 | 1.6 | 9.7 | 0.00 | 0.00 | 0.00 | 60 | 1018.7 |
| 20260902200217 | 34 | 226 | 6.4 | 9.7 | 0.00 | 0.00 | 0.00 | 59 | 1018.8 |
| 20260902195728 | 35 | 265 | 0.0 | 11.3 | 0.00 | 0.00 | 0.00 | 60 | 1018.8 |
| 20260902195242 | 35 | 266 | 6.4 | 11.3 | 0.00 | 0.00 | 0.00 | 59 | 1018.9 |
| 20260902194714 | 35 | 221 | 6.4 | 12.9 | 0.00 | 0.00 | 0.00 | 56 | 1019.0 |
| 20260902194247 | 35 | 240 | 4.8 | 12.9 | 0.00 | 0.00 | 0.00 | 59 | 1019.0 |
| 20260902193718 | 34 | 268 | 1.6 | 6.4 | 0.00 | 0.00 | 0.00 | 60 | 1019.1 |
| 20260902193231 | 34 | 238 | 1.6 | 8.0 | 0.00 | 0.00 | 0.00 | 62 | 1019.0 |
| 20260902192723 | 35 | 234 | 4.8 | 11.3 | 0.00 | 0.00 | 0.00 | 59 | 1019.1 |
| 20260902192216 | 35 | 240 | 4.8 | 11.3 | 0.00 | 0.00 | 0.00 | 58 | 1019.1 |
| 20260902191729 | 35 | 196 | 0.0 | 9.7 | 0.00 | 0.00 | 0.00 | 57 | 1019.1 |
| 20260902191226 | 35 | 217 | 3.2 | 12.9 | 0.00 | 0.00 | 0.00 | 58 | 1019.3 |
| 20260902190719 | 34 | 258 | 6.4 | 12.9 | 0.00 | 0.00 | 0.00 | 61 | 1019.3 |
| 20260902190232 | 34 | 210 | 3.2 | 9.7 | 0.00 | 0.00 | 0.00 | 61 | 1019.3 |
| 20260902185739 | 33 | 232 | 4.8 | 9.7 | 0.00 | 0.00 | 0.00 | 61 | 1019.4 |
| 20260902185232 | 33 | 286 | 4.8 | 9.7 | 0.00 | 0.00 | 0.00 | 61 | 1019.4 |
| 20260902184724 | 33 | 229 | 3.2 | 11.3 | 0.00 | 0.00 | 0.00 | 65 | 1019.5 |
| 20260902184217 | 33 | 278 | 3.2 | 6.4 | 0.00 | 0.00 | 0.00 | 63 | 1019.5 |
| 20260902183731 | 33 | 274 | 1.6 | 11.3 | 0.00 | 0.00 | 0.00 | 63 | 1019.5 |
| 20260902183224 | 34 | 309 | 6.4 | 11.3 | 0.00 | 0.00 | 0.00 | 63 | 1019.5 |
| 20260902182721 | 34 | 281 | 3.2 | 8.0 | 0.00 | 0.00 | 0.00 | 63 | 1019.5 |
| 20260902182214 | 33 | 236 | 4.8 | 11.3 | 0.00 | 0.00 | 0.00 | 61 | 1019.6 |
| 20260902181727 | 34 | 230 | 4.8 | 12.9 | 0.00 | 0.00 | 0.00 | 62 | 1019.6 |
| 20260902181220 | 34 | 246 | 4.8 | 16.1 | 0.00 | 0.00 | 0.00 | 62 | 1019.6 |
| 20260902180712 | 34 | 203 | 8.0 | 16.1 | 0.00 | 0.00 | 0.00 | 63 | 1019.6 |
| 20260902180226 | 34 | 260 | 3.2 | 16.1 | 0.00 | 0.00 | 0.00 | 62 | 1019.7 |
| 20260902175753 | 34 | 285 | 6.4 | 16.1 | 0.00 | 0.00 | 0.00 | 64 | 1019.6 |
| 20260902175224 | 34 | 203 | 1.6 | 9.7 | 0.00 | 0.00 | 0.00 | 64 | 1019.7 |
| 20260902174722 | 33 | 269 | 4.8 | 11.3 | 0.00 | 0.00 | 0.00 | 63 | 1019.7 |
| 20260902174214 | 33 | 236 | 4.8 | 11.3 | 0.00 | 0.00 | 0.00 | 62 | 1019.8 |
| 20260902173729 | 34 | 279 | 4.8 | 16.1 | 0.00 | 0.00 | 0.00 | 61 | 1020.0 |
| 20260902173242 | 33 | 219 | 4.8 | 16.1 | 0.00 | 0.00 | 0.00 | 61 | 1020.0 |
| 20260902172714 | 33 | 237 | 4.8 | 14.5 | 0.00 | 0.00 | 0.00 | 64 | 1020.1 |
| 20260902172227 | 33 | 198 | 4.8 | 9.7 | 0.00 | 0.00 | 0.00 | 62 | 1020.1 |
| 20260902171719 | 33 | 249 | 3.2 | 9.7 | 0.00 | 0.00 | 0.00 | 61 | 1020.1 |
| 20260902171232 | 33 | 241 | 6.4 | 12.9 | 0.00 | 0.00 | 0.00 | 62 | 1020.1 |
| 20260902170725 | 33 | 233 | 8.0 | 12.9 | 0.00 | 0.00 | 0.00 | 62 | 1020.2 |
| 20260902170222 | 33 | 233 | 3.2 | 8.0 | 0.00 | 0.00 | 0.00 | 66 | 1020.3 |
| 20260902165729 | 33 | 279 | 3.2 | 8.0 | 0.00 | 0.00 | 0.00 | 64 | 1020.3 |
| 20260902165221 | 33 | 221 | 1.6 | 8.0 | 0.00 | 0.00 | 0.00 | 64 | 1020.3 |
| 20260902164714 | 33 | 245 | 3.2 | 9.7 | 0.00 | 0.00 | 0.00 | 63 | 1020.4 |
| 20260902164228 | 33 | 234 | 4.8 | 9.7 | 0.00 | 0.00 | 0.00 | 65 | 1020.4 |
| 20260902163741 | 33 | 184 | 1.6 | 8.0 | 0.00 | 0.00 | 0.00 | 67 | 1020.5 |
| 20260902163213 | 33 | 208 | 1.6 | 8.0 | 0.00 | 0.00 | 0.00 | 67 | 1020.5 |
| 20260902162748 | 33 | 181 | 4.8 | 8.0 | 0.00 | 0.00 | 0.00 | 66 | 1020.6 |
| 20260902162220 | 33 | 243 | 0.0 | 6.4 | 0.00 | 0.00 | 0.00 | 65 | 1020.6 |
| 20260902161716 | 33 | 259 | 1.6 | 6.4 | 0.00 | 0.00 | 0.00 | 66 | 1020.7 |
| 20260902161229 | 32 | 217 | 0.0 | 8.0 | 0.00 | 0.00 | 0.00 | 70 | 1020.7 |
| 20260902160742 | 32 | 235 | 3.2 | 8.0 | 0.00 | 0.00 | 0.00 | 68 | 1020.8 |
| 20260902160234 | 32 | 329 | 3.2 | 8.0 | 0.00 | 0.00 | 0.00 | 69 | 1020.8 |
| 20260902155721 | 32 | 285 | 4.8 | 8.0 | 0.00 | 0.00 | 0.00 | 69 | 1020.9 |
| 20260902155213 | 32 | 243 | 3.2 | 8.0 | 0.00 | 0.00 | 0.00 | 70 | 1020.9 |
| 20260902154727 | 32 | 201 | 3.2 | 6.4 | 0.00 | 0.00 | 0.00 | 71 | 1020.9 |
| 20260902154240 | 32 | 255 | 1.6 | 6.4 | 0.00 | 0.00 | 0.00 | 72 | 1020.9 |
| 20260902153752 | 31 | 341 | 0.0 | 9.7 | 0.00 | 0.00 | 0.00 | 72 | 1020.9 |
| 20260902153244 | 31 | 312 | 3.2 | 9.7 | 0.00 | 0.00 | 0.00 | 74 | 1020.9 |
| 20260902152716 | 31 | 321 | 3.2 | 6.4 | 0.00 | 0.00 | 0.00 | 73 | 1020.9 |
| 20260902152213 | 31 | 278 | 1.6 | 8.0 | 0.00 | 0.00 | 0.00 | 75 | 1020.8 |
| 20260902151726 | 31 | 205 | 4.8 | 8.0 | 0.00 | 0.00 | 0.00 | 74 | 1020.7 |
| 20260902151219 | 31 | 227 | 3.2 | 8.0 | 0.00 | 0.00 | 0.00 | 76 | 1020.7 |
| 20260902150732 | 31 | 328 | 1.6 | 6.4 | 0.00 | 0.00 | 0.00 | 76 | 1020.7 |
| 20260902150224 | 30 | 276 | 1.6 | 6.4 | 0.00 | 0.00 | 0.00 | 77 | 1020.8 |
| 20260902145732 | 30 | 274 | 1.6 | 4.8 | 0.00 | 0.00 | 0.00 | 77 | 1020.9 |
| 20260902145224 | 30 | 275 | 1.6 | 6.4 | 0.00 | 0.00 | 0.00 | 77 | 1021.0 |
| 20260902144717 | 30 | 278 | 3.2 | 6.4 | 0.00 | 0.00 | 0.00 | 75 | 1021.0 |
| 20260902144234 | 30 | 273 | 0.0 | 6.4 | 0.00 | 0.00 | 0.00 | 79 | 1020.9 |
| 20260902143743 | 30 | 328 | 1.6 | 6.4 | 0.00 | 0.00 | 0.00 | 78 | 1020.9 |
| 20260902143215 | 30 | 271 | 1.6 | 4.8 | 0.00 | 0.00 | 0.00 | 78 | 1020.8 |
| 20260902142751 | 30 | 283 | 1.6 | 6.4 | 0.00 | 0.00 | 0.00 | 79 | 1020.8 |
| 20260902142223 | 29 | 302 | 1.6 | 6.4 | 0.00 | 0.00 | 0.00 | 78 | 1020.7 |
| 20260902141737 | 29 | 272 | 0.0 | 4.8 | 0.00 | 0.00 | 0.00 | 82 | 1020.7 |
| 20260902141230 | 28 | 231 | 1.6 | 6.4 | 0.00 | 0.00 | 0.00 | 81 | 1020.8 |
| 20260902140724 | 28 | 225 | 1.6 | 6.4 | 0.00 | 0.00 | 0.00 | 82 | 1020.7 |
| 20260902140218 | 28 | 221 | 1.6 | 4.8 | 0.00 | 0.00 | 0.00 | 82 | 1020.8 |
| 20260902135724 | 27 | 225 | 1.6 | 4.8 | 0.00 | 0.00 | 0.00 | 82 | 1020.8 |
| 20260902135242 | 27 | 226 | 1.6 | 4.8 | 0.00 | 0.00 | 0.00 | 84 | 1020.8 |
| 20260902134714 | 27 | 226 | 1.6 | 4.8 | 0.00 | 0.00 | 0.00 | 85 | 1020.8 |
| 20260902134247 | 27 | 230 | 1.6 | 3.2 | 0.00 | 0.00 | 0.00 | 84 | 1020.9 |
| 20260902133719 | 27 | 225 | 1.6 | 4.8 | 0.00 | 0.00 | 0.00 | 85 | 1020.8 |
| 20260902133231 | 26 | 226 | 3.2 | 4.8 | 0.00 | 0.00 | 0.00 | 85 | 1020.9 |
| 20260902132724 | 26 | 236 | 3.2 | 6.4 | 0.00 | 0.00 | 0.00 | 86 | 1020.9 |
| 20260902132217 | 26 | 238 | 3.2 | 6.4 | 0.00 | 0.00 | 0.00 | 86 | 1020.8 |
| 20260902131730 | 26 | 235 | 3.2 | 6.4 | 0.00 | 0.00 | 0.00 | 86 | 1020.8 |
| 20260902131224 | 26 | 230 | 3.2 | 6.4 | 0.00 | 0.00 | 0.00 | 86 | 1020.8 |
| 20260902130721 | 26 | 236 | 3.2 | 4.8 | 0.00 | 0.00 | 0.00 | 86 | 1020.8 |
| 20260902130214 | 26 | 236 | 3.2 | 4.8 | 0.00 | 0.00 | 0.00 | 87 | 1020.8 |
| 20260902125720 | 25 | 230 | 1.6 | 3.2 | 0.00 | 0.00 | 0.00 | 88 | 1020.8 |
| 20260902125253 | 25 | 231 | 1.6 | 3.2 | 0.00 | 0.00 | 0.00 | 88 | 1020.7 |
| 20260902124725 | 25 | 226 | 0.0 | 3.2 | 0.00 | 0.00 | 0.00 | 89 | 1020.7 |
| 20260902124218 | 25 | 175 | 1.6 | 3.2 | 0.00 | 0.00 | 0.00 | 89 | 1020.7 |
| 20260902123752 | 25 | 202 | 0.0 | 3.2 | 0.00 | 0.00 | 0.00 | 90 | 1020.6 |
| 20260902123224 | 24 | 194 | 0.0 | 4.8 | 0.00 | 0.00 | 0.00 | 90 | 1020.5 |
| 20260902122717 | 24 | 185 | 1.6 | 4.8 | 0.00 | 0.00 | 0.00 | 91 | 1020.4 |
| 20260902122214 | 23 | 195 | 0.0 | 4.8 | 0.00 | 0.00 | 0.00 | 92 | 1020.4 |
| 20260902121727 | 23 | 198 | 1.6 | 3.2 | 0.00 | 0.00 | 0.00 | 93 | 1020.4 |
| 20260902121220 | 23 | 179 | 1.6 | 3.2 | 0.00 | 0.00 | 0.00 | 94 | 1020.4 |
| 20260902120753 | 22 | 183 | 1.6 | 4.8 | 0.00 | 0.00 | 0.00 | 95 | 1020.4 |
| 20260902120225 | 22 | 185 | 3.2 | 3.2 | 0.00 | 0.00 | 0.00 | 95 | 1020.4 |
| 20260902115731 | 22 | 188 | 1.6 | 3.2 | 0.00 | 0.00 | 0.00 | 95 | 1020.4 |
| 20260902115224 | 22 | 197 | 1.6 | 3.2 | 0.00 | 0.00 | 0.00 | 95 | 1020.4 |
| 20260902114716 | 22 | 197 | 0.0 | 1.6 | 0.00 | 0.00 | 0.00 | 96 | 1020.3 |
| 20260902114213 | 22 | 197 | 0.0 | 3.2 | 0.00 | 0.00 | 0.00 | 96 | 1020.2 |
| 20260902113746 | 22 | 197 | 1.6 | 3.2 | 0.00 | 0.00 | 0.00 | 96 | 1020.1 |
| 20260902113219 | 22 | 213 | 0.0 | 1.6 | 0.00 | 0.00 | 0.00 | 95 | 1020.0 |
| 20260902112712 | 22 | 213 | 0.0 | 1.6 | 0.00 | 0.00 | 0.00 | 95 | 1019.9 |
| 20260902112226 | 22 | 213 | 0.0 | 1.6 | 0.00 | 0.00 | 0.00 | 95 | 1019.8 |
| 20260902111720 | 22 | 234 | 0.0 | 1.6 | 0.00 | 0.00 | 0.00 | 95 | 1019.9 |
| 20260902111213 | 22 | 234 | 0.0 | 3.2 | 0.00 | 0.00 | 0.00 | 95 | 1019.9 |
| 20260902110726 | 22 | 173 | 0.0 | 3.2 | 0.00 | 0.00 | 0.00 | 95 | 1019.7 |
| 20260902110218 | 22 | 172 | 3.2 | 3.2 | 0.00 | 0.00 | 0.00 | 95 | 1019.7 |
| 20260902105743 | 22 | 164 | 0.0 | 3.2 | 0.00 | 0.00 | 0.00 | 95 | 1019.8 |
| 20260902105220 | 22 | 162 | 1.6 | 3.2 | 0.00 | 0.00 | 0.00 | 96 | 1019.8 |
| 20260902104753 | 22 | 158 | 1.6 | 1.6 | 0.00 | 0.00 | 0.00 | 96 | 1019.7 |
| 20260902104224 | 22 | 163 | 1.6 | 1.6 | 0.00 | 0.00 | 0.00 | 95 | 1019.7 |
| 20260902103737 | 22 | 163 | 0.0 | 0.0 | 0.00 | 0.00 | 0.00 | 95 | 1019.7 |
| 20260902103230 | 22 | 163 | 0.0 | 0.0 | 0.00 | 0.00 | 0.00 | 95 | 1019.6 |
| 20260902102723 | 22 | 163 | 0.0 | 0.0 | 0.00 | 0.00 | 0.00 | 95 | 1019.6 |
| 20260902102216 | 22 | 163 | 0.0 | 0.0 | 0.00 | 0.00 | 0.00 | 94 | 1019.5 |
| 20260902101749 | 22 | 163 | 0.0 | 0.0 | 0.00 | 0.00 | 0.00 | 94 | 1019.5 |
| 20260902101221 | 22 | 163 | 0.0 | 1.6 | 0.00 | 0.00 | 0.00 | 94 | 1019.5 |
| 20260902100717 | 22 | 163 | 0.0 | 3.2 | 0.00 | 0.00 | 0.00 | 94 | 1019.5 |
| 20260902100230 | 22 | 163 | 1.6 | 3.2 | 0.00 | 0.00 | 0.00 | 94 | 1019.5 |
| 20260902095717 | 22 | 162 | 3.2 | 4.8 | 0.00 | 0.00 | 0.00 | 94 | 1019.5 |
| 20260902095250 | 22 | 164 | 3.2 | 4.8 | 0.00 | 0.00 | 0.00 | 94 | 1019.4 |
| 20260902094723 | 22 | 160 | 3.2 | 4.8 | 0.00 | 0.00 | 0.00 | 94 | 1019.5 |
| 20260902094232 | 22 | 177 | 3.2 | 4.8 | 0.00 | 0.00 | 0.00 | 94 | 1019.4 |
| 20260902093725 | 22 | 169 | 1.6 | 4.8 | 0.00 | 0.00 | 0.00 | 94 | 1019.4 |
| 20260902093217 | 22 | 179 | 4.8 | 4.8 | 0.00 | 0.00 | 0.00 | 94 | 1019.4 |
| 20260902092731 | 22 | 182 | 3.2 | 4.8 | 0.00 | 0.00 | 0.00 | 94 | 1019.4 |
| 20260902092228 | 22 | 163 | 3.2 | 4.8 | 0.00 | 0.00 | 0.00 | 94 | 1019.4 |
| 20260902091720 | 22 | 195 | 1.6 | 3.2 | 0.00 | 0.00 | 0.00 | 94 | 1019.5 |
| 20260902091233 | 22 | 197 | 0.0 | 3.2 | 0.00 | 0.00 | 0.00 | 94 | 1019.5 |
| 20260902090726 | 22 | 195 | 1.6 | 4.8 | 0.00 | 0.00 | 0.00 | 94 | 1019.4 |
| 20260902090218 | 22 | 189 | 3.2 | 6.4 | 0.00 | 0.00 | 0.00 | 95 | 1019.4 |
| 20260902085724 | 22 | 184 | 4.8 | 6.4 | 0.00 | 0.00 | 0.00 | 95 | 1019.4 |
| 20260902085216 | 22 | 187 | 3.2 | 6.4 | 0.00 | 0.00 | 0.00 | 95 | 1019.4 |
| 20260902084729 | 22 | 181 | 4.8 | 6.4 | 0.00 | 0.00 | 0.00 | 95 | 1019.4 |
| 20260902084225 | 22 | 181 | 4.8 | 6.4 | 0.00 | 0.00 | 0.00 | 95 | 1019.2 |
| 20260902083718 | 22 | 180 | 4.8 | 6.4 | 0.00 | 0.00 | 0.00 | 95 | 1019.2 |
| 20260902083251 | 22 | 181 | 4.8 | 6.4 | 0.00 | 0.00 | 0.00 | 95 | 1019.2 |
| 20260902082722 | 22 | 191 | 4.8 | 4.8 | 0.00 | 0.00 | 0.00 | 95 | 1019.1 |
| 20260902082215 | 22 | 195 | 3.2 | 3.2 | 0.00 | 0.00 | 0.00 | 95 | 1019.1 |
| 20260902081728 | 22 | 194 | 1.6 | 3.2 | 0.00 | 0.00 | 0.00 | 94 | 1019.1 |
| 20260902081240 | 22 | 193 | 3.2 | 3.2 | 0.00 | 0.00 | 0.00 | 95 | 1019.1 |
| 20260902080731 | 22 | 193 | 1.6 | 3.2 | 0.00 | 0.00 | 0.00 | 95 | 1019.1 |
| 20260902080224 | 22 | 196 | 1.6 | 4.8 | 0.00 | 0.00 | 0.00 | 95 | 1019.0 |
| 20260902075713 | 22 | 189 | 3.2 | 4.8 | 0.00 | 0.00 | 0.00 | 95 | 1019.0 |
| 20260902075226 | 22 | 186 | 3.2 | 4.8 | 0.00 | 0.00 | 0.00 | 95 | 1019.0 |
| 20260902074719 | 22 | 186 | 4.8 | 4.8 | 0.00 | 0.00 | 0.00 | 95 | 1019.0 |
| 20260902074231 | 22 | 193 | 1.6 | 3.2 | 0.00 | 0.00 | 0.00 | 95 | 1019.0 |
| 20260902073724 | 22 | 193 | 3.2 | 4.8 | 0.00 | 0.00 | 0.00 | 95 | 1018.9 |
| 20260902073237 | 22 | 191 | 3.2 | 4.8 | 0.00 | 0.00 | 0.00 | 95 | 1019.0 |
| 20260902072729 | 22 | 200 | 1.6 | 3.2 | 0.00 | 0.00 | 0.00 | 95 | 1019.0 |
| 20260902072221 | 22 | 198 | 1.6 | 4.8 | 0.00 | 0.00 | 0.00 | 94 | 1018.9 |
| 20260902071714 | 22 | 193 | 3.2 | 4.8 | 0.00 | 0.00 | 0.00 | 94 | 1018.9 |
| 20260902071231 | 22 | 197 | 1.6 | 3.2 | 0.00 | 0.00 | 0.00 | 94 | 1018.9 |
| 20260902070723 | 23 | 193 | 1.6 | 4.8 | 0.00 | 0.00 | 0.00 | 94 | 1018.8 |
| 20260902070217 | 23 | 191 | 3.2 | 4.8 | 0.00 | 0.00 | 0.00 | 94 | 1018.9 |
| 20260902065723 | 23 | 191 | 3.2 | 4.8 | 0.00 | 0.00 | 0.00 | 94 | 1018.9 |
| 20260902065216 | 23 | 197 | 1.6 | 3.2 | 0.00 | 0.00 | 0.00 | 94 | 1018.8 |
| 20260902064729 | 23 | 197 | 1.6 | 3.2 | 0.00 | 0.00 | 0.00 | 94 | 1018.9 |
| 20260902064221 | 23 | 197 | 1.6 | 3.2 | 0.00 | 0.00 | 0.00 | 94 | 1018.9 |
| 20260902063714 | 23 | 195 | 1.6 | 3.2 | 0.00 | 0.00 | 0.00 | 94 | 1018.9 |
| 20260902063231 | 23 | 198 | 1.6 | 3.2 | 0.00 | 0.00 | 0.00 | 94 | 1018.9 |
| 20260902062723 | 23 | 199 | 1.6 | 4.8 | 0.00 | 0.00 | 0.00 | 94 | 1018.9 |
| 20260902062216 | 23 | 199 | 1.6 | 6.4 | 0.00 | 0.00 | 0.00 | 94 | 1018.9 |
| 20260902061729 | 23 | 185 | 3.2 | 6.4 | 0.00 | 0.00 | 0.00 | 94 | 1019.0 |
| 20260902061301 | 23 | 194 | 4.8 | 4.8 | 0.00 | 0.00 | 0.00 | 94 | 1019.0 |
| 20260902060731 | 23 | 181 | 3.2 | 4.8 | 0.00 | 0.00 | 0.00 | 94 | 1019.0 |
| 20260902060224 | 23 | 186 | 3.2 | 4.8 | 0.00 | 0.00 | 0.00 | 94 | 1019.0 |
| 20260902055730 | 23 | 193 | 3.2 | 4.8 | 0.00 | 0.00 | 0.00 | 93 | 1019.1 |
| 20260902055222 | 23 | 191 | 3.2 | 4.8 | 0.00 | 0.00 | 0.00 | 93 | 1019.0 |
| 20260902054719 | 23 | 199 | 1.6 | 3.2 | 0.00 | 0.00 | 0.00 | 93 | 1019.2 |
| 20260902054231 | 23 | 202 | 3.2 | 4.8 | 0.00 | 0.00 | 0.00 | 93 | 1019.1 |
| 20260902053722 | 23 | 193 | 3.2 | 4.8 | 0.00 | 0.00 | 0.00 | 93 | 1019.1 |
| 20260902053215 | 23 | 198 | 1.6 | 6.4 | 0.00 | 0.00 | 0.00 | 94 | 1019.1 |
| 20260902052728 | 23 | 192 | 4.8 | 6.4 | 0.00 | 0.00 | 0.00 | 94 | 1019.1 |
| 20260902052240 | 23 | 186 | 4.8 | 6.4 | 0.00 | 0.00 | 0.00 | 94 | 1019.1 |
| 20260902051752 | 23 | 185 | 4.8 | 4.8 | 0.00 | 0.00 | 0.00 | 93 | 1019.1 |
| 20260902051223 | 23 | 173 | 1.6 | 6.4 | 0.00 | 0.00 | 0.00 | 93 | 1019.1 |
| 20260902050736 | 23 | 174 | 4.8 | 6.4 | 0.00 | 0.00 | 0.00 | 93 | 1019.2 |
| 20260902050228 | 24 | 179 | 3.2 | 4.8 | 0.00 | 0.00 | 0.00 | 93 | 1019.1 |
| 20260902045714 | 24 | 192 | 1.6 | 4.8 | 0.00 | 0.00 | 0.00 | 92 | 1019.1 |
| 20260902045231 | 24 | 198 | 0.0 | 4.8 | 0.00 | 0.00 | 0.00 | 92 | 1019.1 |
| 20260902044723 | 24 | 192 | 3.2 | 4.8 | 0.00 | 0.00 | 0.00 | 92 | 1019.1 |
| 20260902044236 | 24 | 191 | 3.2 | 4.8 | 0.00 | 0.00 | 0.00 | 92 | 1019.0 |
| 20260902043728 | 24 | 193 | 1.6 | 4.8 | 0.00 | 0.00 | 0.00 | 92 | 1019.0 |
| 20260902043220 | 25 | 190 | 3.2 | 4.8 | 0.00 | 0.00 | 0.00 | 91 | 1019.0 |
| 20260902042713 | 25 | 192 | 3.2 | 3.2 | 0.00 | 0.00 | 0.00 | 91 | 1019.0 |
| 20260902042226 | 25 | 195 | 3.2 | 4.8 | 0.00 | 0.00 | 0.00 | 91 | 1019.1 |
| 20260902041718 | 25 | 191 | 4.8 | 4.8 | 0.00 | 0.00 | 0.00 | 91 | 1019.0 |
| 20260902041251 | 25 | 188 | 3.2 | 4.8 | 0.00 | 0.00 | 0.00 | 91 | 1019.0 |
| 20260902040743 | 25 | 190 | 4.8 | 4.8 | 0.00 | 0.00 | 0.00 | 90 | 1019.0 |
| 20260902040219 | 25 | 191 | 3.2 | 4.8 | 0.00 | 0.00 | 0.00 | 90 | 1019.0 |
| 20260902035725 | 25 | 188 | 3.2 | 4.8 | 0.00 | 0.00 | 0.00 | 90 | 1019.1 |
| 20260902035237 | 25 | 196 | 1.6 | 4.8 | 0.00 | 0.00 | 0.00 | 90 | 1019.1 |
| 20260902034728 | 25 | 188 | 3.2 | 4.8 | 0.00 | 0.00 | 0.00 | 91 | 1019.0 |
| 20260902034240 | 25 | 188 | 4.8 | 6.4 | 0.00 | 0.00 | 0.00 | 91 | 1019.1 |
| 20260902033732 | 25 | 176 | 4.8 | 6.4 | 0.00 | 0.00 | 0.00 | 90 | 1019.1 |
| 20260902033225 | 25 | 198 | 3.2 | 6.4 | 0.00 | 0.00 | 0.00 | 90 | 1019.1 |
| 20260902032716 | 25 | 175 | 4.8 | 6.4 | 0.00 | 0.00 | 0.00 | 90 | 1019.1 |
| 20260902032230 | 25 | 181 | 4.8 | 6.4 | 0.00 | 0.00 | 0.00 | 89 | 1019.0 |
| 20260902031721 | 25 | 179 | 4.8 | 4.8 | 0.00 | 0.00 | 0.00 | 89 | 1019.0 |
| 20260902031217 | 25 | 175 | 3.2 | 4.8 | 0.00 | 0.00 | 0.00 | 88 | 1019.0 |
| 20260902030730 | 26 | 178 | 3.2 | 4.8 | 0.00 | 0.00 | 0.00 | 88 | 1019.1 |
| 20260902030222 | 26 | 175 | 3.2 | 4.8 | 0.00 | 0.00 | 0.00 | 88 | 1019.1 |
| 20260902025728 | 26 | 176 | 3.2 | 4.8 | 0.00 | 0.00 | 0.00 | 88 | 1019.1 |
| 20260902025241 | 26 | 168 | 1.6 | 3.2 | 0.00 | 0.00 | 0.00 | 88 | 1019.1 |
| 20260902024733 | 26 | 196 | 1.6 | 3.2 | 0.00 | 0.00 | 0.00 | 88 | 1019.1 |
| 20260902024246 | 26 | 196 | 1.6 | 1.6 | 0.00 | 0.00 | 0.00 | 87 | 1019.1 |
| 20260902023718 | 26 | 196 | 0.0 | 1.6 | 0.00 | 0.00 | 0.00 | 87 | 1019.2 |
| 20260902023231 | 26 | 196 | 0.0 | 1.6 | 0.00 | 0.00 | 0.00 | 86 | 1019.2 |
| 20260902022744 | 26 | 196 | 1.6 | 3.2 | 0.00 | 0.00 | 0.00 | 85 | 1019.1 |
| 20260902022235 | 26 | 196 | 1.6 | 1.6 | 0.00 | 0.00 | 0.00 | 84 | 1019.1 |
| 20260902021747 | 26 | 196 | 1.6 | 1.6 | 0.00 | 0.00 | 0.00 | 84 | 1019.0 |
| 20260902021223 | 26 | 196 | 0.0 | 1.6 | 0.00 | 0.00 | 0.00 | 84 | 1019.0 |
| 20260902020715 | 26 | 196 | 0.0 | 0.0 | 0.00 | 0.00 | 0.00 | 83 | 1019.0 |
| 20260902020230 | 27 | 196 | 0.0 | 0.0 | 0.00 | 0.00 | 0.00 | 82 | 1019.0 |
| 20260902015715 | 27 | 196 | 0.0 | 0.0 | 0.00 | 0.00 | 0.00 | 81 | 1019.0 |
| 20260902015227 | 27 | 196 | 0.0 | 1.6 | 0.00 | 0.00 | 0.00 | 81 | 1018.9 |
| 20260902014721 | 27 | 196 | 0.0 | 1.6 | 0.00 | 0.00 | 0.00 | 81 | 1019.0 |
| 20260902014253 | 27 | 196 | 0.0 | 1.6 | 0.00 | 0.00 | 0.00 | 81 | 1018.9 |
| 20260902013724 | 27 | 196 | 0.0 | 1.6 | 0.00 | 0.00 | 0.00 | 80 | 1019.0 |
| 20260902013221 | 27 | 196 | 1.6 | 1.6 | 0.00 | 0.00 | 0.00 | 80 | 1018.9 |
| 20260902012713 | 27 | 196 | 1.6 | 3.2 | 0.00 | 0.00 | 0.00 | 79 | 1018.9 |
| 20260902012225 | 28 | 196 | 1.6 | 3.2 | 0.00 | 0.00 | 0.00 | 79 | 1018.9 |
| 20260902011718 | 28 | 200 | 1.6 | 3.2 | 0.00 | 0.00 | 0.00 | 78 | 1018.9 |